Location: Arbon
(43.0005°N, 0.7472°E)
Time: 10:49:33
(UTC+00:00)

Cosmos 1943 Rocket - Pass Details

Date: 22 April 2026
Orbit: 810 x 844 km, 71.0° (Epoch: 20 May)

Event Time Altitude Azimuth Distance (km) Brightness Sun altitude
Rises 19:54:49 0° 325° (NW) 3,408 6.7 -12.0°
Reaches altitude 10° 19:57:34 10° 314° (NW) 2,466 6.0 -12.5°
Maximum altitude 20:02:18 28° 257° (WSW) 1,521 4.1 -13.2°
Drops below altitude 10° 20:07:00 10° 200° (SSW) 2,439 4.5 -14.0°
Sets 20:09:43 0° 189° (S) 3,363 5.1 -14.4°
